| time (UTC) | temp F | wind direction | speed knots | gust knots | rain 1hr in | rain 24hr in | rain mn in | humidity % | barometer mb |
| 20260504050529 | 65 | 107 | 5.2 | 7.8 | 0.00 | 0.00 | 0.00 | 72 | 1017.7 |
| 20260504045528 | 65 | 116 | 4.3 | 6.1 | 0.00 | 0.00 | 0.00 | 72 | 1017.9 |
| 20260504045028 | 65 | 106 | 3.5 | 6.1 | 0.00 | 0.00 | 0.00 | 72 | 1017.9 |
| 20260504044528 | 65 | 127 | 4.3 | 8.7 | 0.00 | 0.00 | 0.00 | 72 | 1017.8 |
| 20260504044028 | 65 | 0 | 4.3 | 8.7 | 0.00 | 0.00 | 0.00 | 72 | 1017.9 |
| 20260504043527 | 65 | 109 | 4.3 | 6.1 | 0.00 | 0.00 | 0.00 | 71 | 1018.1 |
| 20260504043027 | 65 | 0 | 5.2 | 6.1 | 0.00 | 0.00 | 0.00 | 72 | 1018.1 |
| 20260504042528 | 66 | 113 | 3.5 | 5.2 | 0.00 | 0.00 | 0.00 | 71 | 1018.3 |
| 20260504042028 | 66 | 94 | 3.5 | 5.2 | 0.00 | 0.00 | 0.00 | 71 | 1018.5 |
| 20260504041528 | 66 | 134 | 3.5 | 5.2 | 0.00 | 0.00 | 0.00 | 71 | 1018.4 |
| 20260504040528 | 66 | 100 | 2.6 | 5.2 | 0.00 | 0.00 | 0.00 | 71 | 1018.5 |
| 20260504040028 | 67 | 116 | 2.6 | 5.2 | 0.00 | 0.00 | 0.00 | 71 | 1018.6 |
| 20260504035027 | 67 | 118 | 3.5 | 5.2 | 0.00 | 0.00 | 0.00 | 70 | 1018.5 |
| 20260504034527 | 67 | 113 | 3.5 | 5.2 | 0.00 | 0.00 | 0.00 | 70 | 1018.5 |
| 20260504033527 | 67 | 130 | 4.3 | 6.1 | 0.00 | 0.00 | 0.00 | 70 | 1018.3 |
| 20260504033027 | 67 | 128 | 3.5 | 6.1 | 0.00 | 0.00 | 0.00 | 69 | 1018.3 |
| 20260504032026 | 67 | 109 | 3.5 | 7.8 | 0.00 | 0.00 | 0.00 | 69 | 1018.2 |
| 20260504031527 | 67 | 120 | 4.3 | 7.8 | 0.00 | 0.00 | 0.00 | 69 | 1018.1 |
| 20260504030527 | 67 | 109 | 3.5 | 8.7 | 0.00 | 0.00 | 0.00 | 68 | 1018.0 |
| 20260504030026 | 68 | 123 | 4.3 | 8.7 | 0.00 | 0.00 | 0.00 | 68 | 1018.0 |
| 20260504025026 | 68 | 121 | 6.1 | 10.4 | 0.00 | 0.00 | 0.00 | 68 | 1018.2 |
| 20260504024526 | 68 | 75 | 5.2 | 9.6 | 0.00 | 0.00 | 0.00 | 68 | 1018.1 |
| 20260504024026 | 68 | 120 | 6.1 | 9.6 | 0.00 | 0.00 | 0.00 | 67 | 1018.1 |
| 20260504023026 | 68 | 0 | 5.2 | 9.6 | 0.00 | 0.00 | 0.00 | 67 | 1018.0 |
| 20260504022526 | 69 | 141 | 4.3 | 9.6 | 0.00 | 0.00 | 0.00 | 67 | 1018.1 |
| 20260504021526 | 69 | 106 | 7.0 | 10.4 | 0.00 | 0.00 | 0.00 | 66 | 1018.0 |
| 20260504021025 | 69 | 113 | 7.8 | 11.3 | 0.00 | 0.00 | 0.00 | 66 | 1017.9 |
| 20260504020025 | 69 | 135 | 7.0 | 13.0 | 0.00 | 0.00 | 0.00 | 65 | 1018.0 |
| 20260504015525 | 69 | 140 | 7.0 | 13.0 | 0.00 | 0.00 | 0.00 | 65 | 1017.9 |
| 20260504014525 | 70 | 130 | 5.2 | 13.0 | 0.00 | 0.00 | 0.00 | 64 | 1017.7 |
| 20260504014024 | 70 | 116 | 7.0 | 15.6 | 0.00 | 0.00 | 0.00 | 64 | 1017.6 |
| 20260504013524 | 70 | 116 | 7.0 | 15.6 | 0.00 | 0.00 | 0.00 | 63 | 1017.6 |
| 20260504013025 | 70 | 100 | 5.2 | 12.2 | 0.00 | 0.00 | 0.00 | 62 | 1017.5 |
| 20260504012525 | 71 | 144 | 7.0 | 12.2 | 0.00 | 0.00 | 0.00 | 62 | 1017.3 |
| 20260504012024 | 71 | 131 | 4.3 | 13.0 | 0.00 | 0.00 | 0.00 | 61 | 1017.3 |
| 20260504011524 | 71 | 148 | 7.8 | 14.8 | 0.00 | 0.00 | 0.00 | 60 | 1017.2 |
| 20260504011024 | 71 | 123 | 7.0 | 14.8 | 0.00 | 0.00 | 0.00 | 60 | 1017.2 |
| 20260504010524 | 72 | 124 | 5.2 | 13.9 | 0.00 | 0.00 | 0.00 | 59 | 1017.3 |
| 20260504010024 | 72 | 104 | 6.1 | 13.9 | 0.00 | 0.00 | 0.00 | 58 | 1017.3 |
| 20260504005524 | 72 | 123 | 7.0 | 11.3 | 0.00 | 0.00 | 0.00 | 58 | 1017.3 |
| 20260504004524 | 72 | 113 | 7.0 | 12.2 | 0.00 | 0.00 | 0.00 | 57 | 1017.0 |
| 20260504004024 | 73 | 113 | 7.8 | 13.0 | 0.00 | 0.00 | 0.00 | 57 | 1017.2 |
| 20260504003023 | 74 | 127 | 8.7 | 15.6 | 0.00 | 0.00 | 0.00 | 55 | 1017.1 |
| 20260504002523 | 74 | 151 | 6.1 | 15.6 | 0.00 | 0.00 | 0.00 | 54 | 1017.2 |
| 20260504001523 | 74 | 130 | 8.7 | 15.6 | 0.00 | 0.00 | 0.00 | 52 | 1017.4 |
| 20260504001023 | 75 | 114 | 5.2 | 12.2 | 0.00 | 0.00 | 0.00 | 50 | 1017.5 |
| 20260504000523 | 75 | 0 | 6.1 | 13.9 | 0.00 | 0.00 | 0.00 | 50 | 1017.5 |
| 20260503235523 | 75 | 0 | 6.1 | 13.9 | 0.00 | 0.00 | 0.00 | 49 | 1017.5 |
| 20260503235023 | 76 | 114 | 7.8 | 13.9 | 0.00 | 0.00 | 0.00 | 49 | 1017.4 |
| 20260503234023 | 76 | 125 | 7.8 | 13.9 | 0.00 | 0.00 | 0.00 | 49 | 1017.3 |
| 20260503233522 | 76 | 94 | 9.6 | 13.9 | 0.00 | 0.00 | 0.00 | 49 | 1017.4 |
| 20260503232523 | 76 | 140 | 7.8 | 16.5 | 0.00 | 0.00 | 0.00 | 48 | 1017.3 |
| 20260503232023 | 76 | 110 | 8.7 | 14.8 | 0.00 | 0.00 | 0.00 | 49 | 1017.3 |
| 20260503231523 | 77 | 133 | 7.8 | 14.8 | 0.00 | 0.00 | 0.00 | 48 | 1017.2 |
| 20260503231022 | 77 | 102 | 9.6 | 14.8 | 0.00 | 0.00 | 0.00 | 48 | 1017.3 |
| 20260503230522 | 77 | 114 | 7.0 | 14.8 | 0.00 | 0.00 | 0.00 | 48 | 1017.4 |
| 20260503230023 | 77 | 0 | 8.7 | 14.8 | 0.00 | 0.00 | 0.00 | 48 | 1017.5 |
| 20260503225522 | 77 | 107 | 7.0 | 13.9 | 0.00 | 0.00 | 0.00 | 49 | 1017.5 |
| 20260503225022 | 77 | 130 | 7.8 | 16.5 | 0.00 | 0.00 | 0.00 | 47 | 1017.5 |
| 20260503224521 | 77 | 137 | 7.8 | 17.4 | 0.00 | 0.00 | 0.00 | 47 | 1017.5 |
| 20260503224021 | 77 | 113 | 12.2 | 17.4 | 0.00 | 0.00 | 0.00 | 47 | 1017.6 |
| 20260503223521 | 78 | 79 | 7.8 | 14.8 | 0.00 | 0.00 | 0.00 | 47 | 1017.7 |
| 20260503223021 | 78 | 138 | 6.1 | 16.5 | 0.00 | 0.00 | 0.00 | 47 | 1017.7 |
| 20260503222522 | 78 | 142 | 9.6 | 16.5 | 0.00 | 0.00 | 0.00 | 46 | 1017.7 |
| 20260503222021 | 78 | 199 | 7.0 | 14.8 | 0.00 | 0.00 | 0.00 | 46 | 1017.7 |
| 20260503221021 | 78 | 117 | 3.5 | 13.9 | 0.00 | 0.00 | 0.00 | 45 | 1017.8 |
| 20260503220521 | 78 | 145 | 6.1 | 13.9 | 0.00 | 0.00 | 0.00 | 45 | 1017.9 |
| 20260503215521 | 78 | 93 | 5.2 | 15.6 | 0.00 | 0.00 | 0.00 | 46 | 1017.7 |
| 20260503215021 | 78 | 124 | 8.7 | 14.8 | 0.00 | 0.00 | 0.00 | 48 | 1018.0 |
| 20260503214021 | 78 | 63 | 7.8 | 13.9 | 0.00 | 0.00 | 0.00 | 47 | 1018.2 |
| 20260503213520 | 79 | 62 | 8.7 | 14.8 | 0.00 | 0.00 | 0.00 | 47 | 1018.4 |
| 20260503213021 | 79 | 178 | 9.6 | 14.8 | 0.00 | 0.00 | 0.00 | 46 | 1018.4 |
| 20260503212520 | 79 | 145 | 7.8 | 13.9 | 0.00 | 0.00 | 0.00 | 47 | 1018.5 |
| 20260503211520 | 78 | 116 | 6.1 | 11.3 | 0.00 | 0.00 | 0.00 | 46 | 1018.7 |
| 20260503211020 | 78 | 145 | 5.2 | 11.3 | 0.00 | 0.00 | 0.00 | 47 | 1018.9 |
| 20260503210020 | 79 | 159 | 6.1 | 13.9 | 0.00 | 0.00 | 0.00 | 46 | 1019.1 |
| 20260503205520 | 79 | 178 | 6.1 | 13.9 | 0.00 | 0.00 | 0.00 | 47 | 1019.1 |
| 20260503204519 | 80 | 85 | 7.0 | 13.0 | 0.00 | 0.00 | 0.00 | 45 | 1019.2 |
| 20260503204019 | 79 | 135 | 3.5 | 12.2 | 0.00 | 0.00 | 0.00 | 44 | 1019.3 |
| 20260503203519 | 78 | 134 | 7.0 | 12.2 | 0.00 | 0.00 | 0.00 | 45 | 1019.4 |
| 20260503202520 | 80 | 165 | 7.8 | 13.9 | 0.00 | 0.00 | 0.00 | 43 | 1019.5 |
| 20260503202020 | 81 | 123 | 1.7 | 8.7 | 0.00 | 0.00 | 0.00 | 42 | 1019.5 |
| 20260503201019 | 80 | 125 | 7.8 | 13.0 | 0.00 | 0.00 | 0.00 | 43 | 1019.7 |
| 20260503200519 | 79 | 125 | 5.2 | 12.2 | 0.00 | 0.00 | 0.00 | 43 | 1019.7 |
| 20260503195519 | 79 | 131 | 2.6 | 13.0 | 0.00 | 0.00 | 0.00 | 43 | 1019.8 |
| 20260503195018 | 79 | 120 | 7.8 | 13.9 | 0.00 | 0.00 | 0.00 | 44 | 1019.9 |
| 20260503194518 | 79 | 214 | 2.6 | 13.9 | 0.00 | 0.00 | 0.00 | 43 | 1020.0 |
| 20260503194019 | 79 | 0 | 7.0 | 12.2 | 0.00 | 0.00 | 0.00 | 43 | 1020.1 |
| 20260503193519 | 79 | 96 | 2.6 | 11.3 | 0.00 | 0.00 | 0.00 | 45 | 1020.2 |
| 20260503193018 | 79 | 107 | 5.2 | 11.3 | 0.00 | 0.00 | 0.00 | 42 | 1020.4 |
| 20260503192518 | 79 | 111 | 4.3 | 11.3 | 0.00 | 0.00 | 0.00 | 44 | 1020.6 |
| 20260503192018 | 79 | 118 | 5.2 | 11.3 | 0.00 | 0.00 | 0.00 | 42 | 1020.6 |
| 20260503191518 | 79 | 100 | 5.2 | 13.0 | 0.00 | 0.00 | 0.00 | 44 | 1020.6 |
| 20260503191018 | 78 | 106 | 8.7 | 13.9 | 0.00 | 0.00 | 0.00 | 44 | 1020.7 |
| 20260503190518 | 79 | 114 | 7.8 | 13.9 | 0.00 | 0.00 | 0.00 | 43 | 1020.8 |
| 20260503190019 | 79 | 45 | 1.7 | 13.0 | 0.00 | 0.00 | 0.00 | 42 | 1020.8 |
| 20260503185518 | 79 | 118 | 7.0 | 13.0 | 0.00 | 0.00 | 0.00 | 44 | 1021.0 |
| 20260503185017 | 79 | 110 | 6.1 | 13.9 | 0.00 | 0.00 | 0.00 | 43 | 1021.0 |
| 20260503184518 | 78 | 152 | 7.0 | 13.9 | 0.00 | 0.00 | 0.00 | 43 | 1021.0 |
| 20260503184017 | 78 | 159 | 4.3 | 11.3 | 0.00 | 0.00 | 0.00 | 44 | 1021.1 |
| 20260503183517 | 78 | 31 | 2.6 | 14.8 | 0.00 | 0.00 | 0.00 | 44 | 1021.2 |
| 20260503183018 | 78 | 117 | 5.2 | 14.8 | 0.00 | 0.00 | 0.00 | 45 | 1021.3 |
| 20260503182517 | 78 | 110 | 3.5 | 13.0 | 0.00 | 0.00 | 0.00 | 42 | 1021.3 |
| 20260503182018 | 78 | 87 | 9.6 | 13.0 | 0.00 | 0.00 | 0.00 | 44 | 1021.4 |
| 20260503181517 | 78 | 113 | 1.7 | 11.3 | 0.00 | 0.00 | 0.00 | 45 | 1021.5 |
| 20260503181017 | 78 | 149 | 5.2 | 12.2 | 0.00 | 0.00 | 0.00 | 44 | 1021.6 |
| 20260503180517 | 78 | 107 | 6.1 | 12.2 | 0.00 | 0.00 | 0.00 | 44 | 1021.7 |
| 20260503175517 | 78 | 152 | 3.5 | 9.6 | 0.00 | 0.00 | 0.00 | 45 | 1021.8 |
| 20260503175017 | 78 | 109 | 4.3 | 8.7 | 0.00 | 0.00 | 0.00 | 45 | 1021.9 |
| 20260503174017 | 77 | 0 | 5.2 | 11.3 | 0.00 | 0.00 | 0.00 | 46 | 1022.2 |
| 20260503173516 | 76 | 168 | 5.2 | 11.3 | 0.00 | 0.00 | 0.00 | 47 | 1022.4 |
| 20260503172518 | 77 | 76 | 5.2 | 9.6 | 0.00 | 0.00 | 0.00 | 46 | 1022.3 |
| 20260503172016 | 77 | 79 | 4.3 | 9.6 | 0.00 | 0.00 | 0.00 | 45 | 1022.3 |
| 20260503171516 | 77 | 45 | 3.5 | 13.0 | 0.00 | 0.00 | 0.00 | 47 | 1022.4 |
| 20260503170516 | 76 | 110 | 2.6 | 9.6 | 0.00 | 0.00 | 0.00 | 47 | 1022.5 |
| 20260503151014 | 71 | 62 | 0.9 | 6.1 | 0.00 | 0.00 | 0.00 | 63 | 1023.0 |
| 20260503150514 | 70 | 68 | 3.5 | 6.1 | 0.00 | 0.00 | 0.00 | 64 | 1023.1 |
| 20260503130511 | 53 | 295 | 0.0 | 1.7 | 0.00 | 0.00 | 0.00 | 83 | 1022.7 |
| 20260503110501 | 52 | 0 | 2.6 | 3.5 | 0.00 | 0.00 | 0.00 | 80 | 1021.2 |
| 20260503090500 | 54 | 54 | 0.9 | 1.7 | 0.00 | 0.00 | 0.00 | 77 | 1021.2 |
| 20260503081001 | 55 | 16 | 1.7 | 2.6 | 0.00 | 0.00 | 0.00 | 76 | 1021.3 |
| 20260503080506 | 55 | 16 | 1.7 | 2.6 | 0.00 | 0.00 | 0.00 | 76 | 1021.4 |
| 20260503072001 | 56 | 23 | 0.9 | 2.6 | 0.00 | 0.00 | 0.00 | 74 | 1021.7 |
| 20260503071501 | 56 | 38 | 1.7 | 2.6 | 0.00 | 0.00 | 0.00 | 73 | 1021.7 |
| 20260503070506 | 56 | 47 | 1.7 | 2.6 | 0.00 | 0.00 | 0.00 | 73 | 1021.7 |